[[{"header":{"parameterUnit":"m.s-1","parameterCategory":2,"la1":30.2991,"la2":30.254,"lo1":-89.0895,"lo2":-89.0444,"dy":0.0017,"dx":0.0017,"nx":28,"ny":28,"refTime":"2024-10-06T09:00:00:Z","depth":"0","parameterNumber":2,"parameterNumberName":"U-component_of_CURRENTS"},"data":[0,0,0,0,0,0,0,0,0,0,0,0,0,0,0,0,0,0,0,0,0,0,0,0,0,0,0,0,0,0,0,0,0,0,0,0,0,0,0,0,0,0,0,0,0,0,0,0,0,0,0,0,0,0,0,0,0,0,0.2587,0.2587,0,0.2599,0.2599,0.2599,0.2589,0.2588,0.2588,0.2588,0.2565,0.2565,0.2565,0,0,0,0,0,0,0,0,0,0,0,0,0,0.2553,0.2553,0.2587,0.2587,0.2587,0.2599,0.2599,0.2599,0.2589,0.2588,0.2588,0.2588,0.2565,0.2565,0.2565,0,0,0,0,0,0,0,0,0,0,0,0,0,0.2565,0.2553,0.2587,0.2585,0.2585,0.2599,0.2599,0.2599,0.2589,0.2588,0.2588,0.2588,0.2566,0.2565,0.2564,0.2569,0,0,0.2563,0.2563,0,0,0,0,0,0,0,0,0.2564,0.2566,0.2585,0.2585,0.2585,0.2594,0.2579,0.2588,0.2589,0.2585,0.2588,0.2587,0.2573,0.2572,0.2573,0.2568,0.2567,0.2563,0.2562,0.2562,0.2562,0,0,0,0,0,0,0,0.2563,0.2565,0.259,0.2585,0.2586,0.2584,0.2585,0.2581,0.2579,0.2586,0.2585,0.259,0.2573,0.2573,0.2572,0.2567,0.2563,0.2562,0.2562,0.2562,0.2597,0.2598,0,0,0,0,0,0,0.2566,0.2564,0.2589,0.259,0.2576,0.2585,0.2586,0.259,0.258,0.2579,0.259,0.2589,0.2574,0.2573,0.2571,0.2599,0.2562,0.2562,0.2561,0.2596,0.2597,0.2598,0,0,0,0,0,0,0.2566,0.2568,0.2589,0.2579,0.2582,0.2586,0.259,0.259,0.2595,0.2584,0.2582,0.2596,0.2574,0.2572,0.258,0.2597,0.2561,0.2561,0.2594,0.2596,0.2598,0.264,0,0,0,0,0,0,0.2564,0.2568,0.2571,0.2579,0.2583,0.2604,0.2591,0.2591,0.2599,0.2598,0.2588,0.2585,0.2574,0.2581,0.2579,0.2596,0.2561,0.2592,0.2595,0.2597,0.2637,0.2643,0.2649,0,0,0,0,0,0.2563,0.257,0.2571,0.2574,0.2587,0.2605,0.2607,0.2607,0.26,0.2608,0.2604,0.2586,0.2594,0.2581,0.2579,0.2596,0.2591,0.2594,0.2597,0.2635,0.2642,0.2649,0,0,0,0,0,0,0.2555,0.257,0.2571,0.2582,0.2596,0.2604,0.2612,0.2612,0.2615,0.2613,0.2598,0.2596,0.2613,0.2601,0.2586,0.2615,0.2592,0.2594,0.2621,0.2628,0.2634,0.2646,0.256,0,0,0,0,0,0.2556,0.2566,0.2581,0.259,0.2599,0.2607,0.2613,0.2617,0.2622,0.2623,0.2616,0.2614,0.2623,0.2621,0.2625,0.2635,0.2646,0.2647,0.2653,0.2658,0.2668,0.2707,0.2717,0.2608,0.2608,0.2608,0,0,0.2554,0.2565,0.2569,0.259,0.2599,0.2617,0.2609,0.2626,0.2641,0.262,0.2633,0.2635,0.2632,0.265,0.2656,0.264,0.2696,0.2661,0.2665,0.2673,0.2711,0.2722,0.2731,0.261,0.2609,0.2609,0,0,0.256,0.2569,0.258,0.2596,0.2619,0.2628,0.2635,0.265,0.2656,0.2671,0.2668,0.2683,0.2681,0.2692,0.2695,0.2735,0.2729,0.2733,0.2765,0.2802,0.2812,0.282,0.2852,0.2863,0.273,0.273,0.2731,0,0.2557,0.2575,0.2587,0.2606,0.2623,0.2635,0.2655,0.2667,0.2681,0.2696,0.2681,0.2713,0.2705,0.2743,0.2755,0.2748,0.2766,0.2736,0.281,0.2818,0.2826,0.2857,0.2868,0.2733,0.2733,0.2732,0.2732,0,0.2573,0.259,0.2602,0.263,0.2649,0.2671,0.2694,0.2714,0.2721,0.2733,0.2772,0.2772,0.2792,0.2793,0.2782,0.2838,0.2833,0.2816,0.2791,0.284,0.2869,0.288,0.2736,0.2735,0.2735,0.2734,0,0,0.2556,0.2604,0.2606,0.2621,0.2665,0.2678,0.272,0.2759,0.2787,0.2802,0.2842,0.286,0.2866,0.2872,0.2869,0.2895,0.296,0.2878,0.2879,0.2909,0.3046,0.3042,0.3053,0.2957,0.2959,0.296,0.3046,0,0.2565,0.2597,0.2626,0.2658,0.2677,0.2715,0.2752,0.2789,0.2819,0.2859,0.2883,0.2914,0.2895,0.2907,0.2937,0.2959,0.2991,0.2938,0.2997,0.2999,0.2988,0.3067,0.2994,0.3064,0.3056,0.3058,0.306,0,0.2568,0.259,0.2622,0.2673,0.2686,0.2709,0.2772,0.2808,0.2879,0.2906,0.2955,0.2973,0.3029,0.2995,0.3072,0.3041,0.3052,0.3061,0.3064,0.3054,0.3015,0.3015,0.3085,0.3047,0.3076,0.3075,0.3074,0,0.2535,0.2585,0.2608,0.2624,0.2685,0.271,0.2747,0.2817,0.2864,0.2939,0.2984,0.3044,0.3087,0.3117,0.3147,0.3114,0.3228,0.3181,0.3191,0.319,0.3138,0.3129,0.3177,0.3239,0.3239,0.3238,0.3238,0,0.2528,0.2543,0.2589,0.2598,0.2632,0.2683,0.2734,0.2787,0.2877,0.2936,0.3002,0.307,0.3121,0.3189,0.319,0.3245,0.327,0.3224,0.3224,0.3151,0.3143,0.3113,0.3077,0.3242,0.3241,0.324,0.324,0,0.2487,0.252,0.2544,0.2598,0.2616,0.2636,0.2725,0.2767,0.286,0.2946,0.2977,0.3114,0.3209,0.3259,0.3324,0.3312,0.327,0.3352,0.3265,0.3253,0.3203,0.3172,0.3076,0.2964,0.3375,0.3376,0.3376,0,0.2468,0.2477,0.2526,0.254,0.2563,0.2605,0.2643,0.2742,0.2801,0.2967,0.3014,0.3152,0.3239,0.3366,0.3384,0.3419,0.33,0.335,0.327,0.3221,0.3186,0.3029,0.2929,0.3218,0.3217,0.3216,0.3216,0,0.2431,0.245,0.2469,0.2498,0.2526,0.2562,0.2628,0.2675,0.2797,0.2883,0.3016,0.3104,0.3271,0.331,0.3384,0.3383,0.3211,0.3337,0.331,0.3102,0.2909,0.2794,0.3139,0.321,0.321,0.3211,0.3211,0.3211,0.24,0.2401,0.2427,0.2449,0.2478,0.2503,0.2507,0.2595,0.2673,0.2781,0.2933,0.304,0.32,0.3316,0.3298,0.327,0.3182,0.3186,0.3165,0.3019,0.287,0.3208,0.3261,0.3262,0.3263,0.3263,0.3264,0,0.2348,0.2357,0.2378,0.2387,0.2382,0.2427,0.248,0.2474,0.2518,0.2677,0.2774,0.2959,0.305,0.3152,0.3226,0.3132,0.2936,0.3047,0.2818,0.2733,0.3083,0.3039,0.3017,0.3017,0.3017,0.3017,0.3017,0.3017,0.2323,0.231,0.2318,0.2282,0.2287,0.2246,0.2252,0.2269,0.2358,0.2463,0.2582,0.272,0.3016,0.3194,0.3169,0.3067,0.28,0.269,0.2627,0.2924,0.2935,0.2944,0.2897,0.2845,0.2845,0.2162,0.2157,0.2153]},{"header":{"parameterUnit":"m.s-1","parameterCategory":2,"la1":30.2991,"la2":30.254,"lo1":-89.0895,"lo2":-89.0444,"dy":0.0017,"dx":0.0017,"nx":28,"ny":28,"refTime":"2024-10-06T09:00:00:Z","depth":"0","parameterNumber":3,"parameterNumberName":"V-component_of_CURRENTS"},"data":[0,0,0,0,0,0,0,0,0,0,0,0,0,0,0,0,0,0,0,0,0,0,0,0,0,0,0,0,0,0,0,0,0,0,0,0,0,0,0,0,0,0,0,0,0,0,0,0,0,0,0,0,0,0,0,0,0,0,-0.0131,-0.0131,0,-0.019,-0.019,-0.0191,-0.023,-0.023,-0.023,-0.023,-0.0296,-0.0298,-0.0299,0,0,0,0,0,0,0,0,0,0,0,0,0,-0.0093,-0.0093,-0.013,-0.0131,-0.0132,-0.0189,-0.019,-0.0191,-0.023,-0.023,-0.023,-0.023,-0.0296,-0.0297,-0.0299,0,0,0,0,0,0,0,0,0,0,0,0,0,-0.0127,-0.0093,-0.013,-0.0157,-0.016,-0.0189,-0.019,-0.0192,-0.023,-0.023,-0.023,-0.023,-0.0295,-0.0297,-0.03,-0.0311,0,0,-0.0307,-0.0308,0,0,0,0,0,0,0,0,-0.0125,-0.0129,-0.0152,-0.0155,-0.0158,-0.0201,-0.0201,-0.0231,-0.023,-0.0205,-0.023,-0.023,-0.0264,-0.0269,-0.0282,-0.0314,-0.0317,-0.0307,-0.0309,-0.031,-0.0311,0,0,0,0,0,0,0,-0.0123,-0.0127,-0.0155,-0.0153,-0.0157,-0.018,-0.0185,-0.0207,-0.0234,-0.0207,-0.0209,-0.0214,-0.0266,-0.0279,-0.0283,-0.0318,-0.0307,-0.031,-0.0311,-0.0312,-0.036,-0.036,0,0,0,0,0,0,-0.011,-0.0124,-0.0153,-0.0157,-0.014,-0.018,-0.0186,-0.0188,-0.0234,-0.024,-0.0213,-0.0215,-0.0275,-0.028,-0.0286,-0.0288,-0.031,-0.0312,-0.0314,-0.0361,-0.036,-0.036,0,0,0,0,0,0,-0.0109,-0.0112,-0.0151,-0.0141,-0.0147,-0.018,-0.0183,-0.0189,-0.0199,-0.0238,-0.0245,-0.0216,-0.0275,-0.0282,-0.03,-0.0291,-0.0313,-0.0316,-0.0361,-0.036,-0.036,-0.0302,0,0,0,0,0,0,-0.0108,-0.0112,-0.0109,-0.014,-0.0147,-0.0159,-0.0183,-0.019,-0.0201,-0.0204,-0.0243,-0.0249,-0.0276,-0.0296,-0.0302,-0.0295,-0.0318,-0.0361,-0.0361,-0.036,-0.0304,-0.0299,-0.0295,0,0,0,0,0,-0.0106,-0.0097,-0.0108,-0.0112,-0.0142,-0.0158,-0.0164,-0.019,-0.0201,-0.02,-0.0227,-0.0248,-0.0298,-0.0297,-0.0305,-0.0299,-0.0361,-0.0361,-0.036,-0.0306,-0.03,-0.0296,0,0,0,0,0,0,-0.0078,-0.0101,-0.0114,-0.0112,-0.013,-0.0164,-0.0165,-0.0183,-0.0205,-0.0207,-0.0245,-0.0253,-0.0267,-0.0291,-0.0289,-0.0312,-0.0333,-0.0334,-0.0289,-0.0284,-0.028,-0.0261,-0.032,0,0,0,0,0,-0.007,-0.007,-0.0097,-0.0095,-0.0101,-0.0132,-0.0142,-0.0158,-0.0182,-0.0192,-0.0219,-0.0248,-0.0272,-0.0283,-0.0309,-0.0319,-0.0344,-0.0321,-0.0317,-0.0313,-0.0303,-0.0339,-0.0337,-0.0359,-0.0359,-0.0359,0,0,-0.006,-0.0071,-0.0072,-0.0089,-0.0106,-0.0105,-0.0139,-0.0146,-0.0145,-0.0195,-0.0202,-0.0234,-0.0272,-0.0285,-0.0293,-0.0303,-0.0319,-0.0312,-0.0309,-0.0301,-0.0338,-0.0336,-0.0334,-0.0358,-0.0358,-0.0359,0,0,-0.0033,-0.0047,-0.0037,-0.0046,-0.0063,-0.0081,-0.0079,-0.0108,-0.0121,-0.0135,-0.0169,-0.0194,-0.0231,-0.0255,-0.0272,-0.026,-0.0297,-0.0271,-0.0233,-0.0268,-0.0266,-0.0265,-0.0289,-0.0291,-0.0268,-0.0268,-0.0267,0,-0.0018,-0.0009,-0.0036,-0.0026,-0.0025,-0.0065,-0.0049,-0.0069,-0.01,-0.0106,-0.0127,-0.0182,-0.0215,-0.023,-0.0228,-0.0249,-0.0273,-0.0247,-0.0261,-0.0261,-0.0261,-0.0286,-0.0289,-0.0265,-0.0265,-0.0265,-0.0266,0,0.0017,0.0025,0.0033,0.0032,0.0028,0.0035,0.001,0.0002,-0.0021,-0.0045,-0.0068,-0.0119,-0.0149,-0.0168,-0.0196,-0.0208,-0.0227,-0.0252,-0.0271,-0.0255,-0.0283,-0.0286,-0.0261,-0.0262,-0.0262,-0.0263,0,0,0.0054,0.0057,0.0062,0.0075,0.0063,0.0067,0.0069,0.006,0.0068,0.0021,0.0022,-0.0033,-0.0066,-0.0087,-0.0129,-0.0163,-0.0186,-0.0201,-0.0205,-0.0219,-0.0256,-0.0266,-0.0271,-0.0217,-0.0217,-0.0217,-0.0274,0,0.0093,0.0129,0.0117,0.0154,0.0172,0.0145,0.0154,0.014,0.0114,0.0103,0.0042,0.0024,-0.0034,-0.0046,-0.0089,-0.0159,-0.0193,-0.0167,-0.0275,-0.0278,-0.0284,-0.0275,-0.0257,-0.0306,-0.0278,-0.0279,-0.0279,0,0.0137,0.0157,0.0199,0.0223,0.0229,0.024,0.0253,0.0255,0.0224,0.0202,0.0164,0.0116,0.0067,0.0012,-0.0098,-0.0079,-0.0159,-0.0221,-0.0225,-0.0255,-0.0294,-0.032,-0.0314,-0.0464,-0.0285,-0.0285,-0.0284,0,0.0187,0.0218,0.0256,0.0264,0.0279,0.0292,0.0298,0.0284,0.0304,0.0263,0.0269,0.0191,0.0165,0.0052,-0.0072,-0.0087,-0.0195,-0.0234,-0.0318,-0.032,-0.0335,-0.0337,-0.048,-0.0314,-0.0314,-0.0314,-0.0314,0,0.0238,0.0271,0.0282,0.0303,0.0356,0.0343,0.0387,0.0379,0.0382,0.0418,0.0325,0.0339,0.0174,0.0095,-0.004,-0.0179,-0.0173,-0.0305,-0.0335,-0.0314,-0.0314,-0.047,-0.0571,-0.0316,-0.0315,-0.0315,-0.0315,0,0.0288,0.0293,0.0341,0.0366,0.038,0.0416,0.0458,0.0494,0.0478,0.0522,0.0519,0.0455,0.0352,0.0185,0.0011,-0.0121,-0.036,-0.032,-0.0278,-0.0302,-0.0524,-0.0621,-0.0807,-0.0889,-0.0423,-0.0423,-0.0424,0,0.0316,0.0345,0.0392,0.0429,0.0441,0.0488,0.0531,0.054,0.0589,0.0605,0.0646,0.0565,0.0535,0.0274,0.0025,-0.0209,-0.0374,-0.0359,-0.0391,-0.0529,-0.066,-0.0732,-0.0793,-0.039,-0.039,-0.039,-0.039,0,0.0374,0.0386,0.0426,0.0499,0.055,0.0615,0.0677,0.0736,0.0761,0.0803,0.0855,0.0834,0.0594,0.0381,0.0051,-0.0131,-0.0477,-0.0369,-0.0529,-0.0658,-0.073,-0.0823,-0.0357,-0.0391,-0.0391,-0.0391,-0.0391,-0.0391,0.0418,0.0456,0.0506,0.0579,0.0646,0.0736,0.0798,0.0881,0.0977,0.106,0.1031,0.1037,0.071,0.0271,-0.0,-0.0474,-0.0499,-0.0611,-0.072,-0.078,-0.086,-0.0388,-0.0447,-0.0447,-0.0447,-0.0447,-0.0448,0,0.0474,0.0515,0.0585,0.0669,0.0752,0.0774,0.0898,0.097,0.1096,0.1188,0.1236,0.11,0.0689,0.0244,-0.0378,-0.0732,-0.0886,-0.0946,-0.1052,-0.11,-0.0687,-0.0684,-0.0776,-0.0776,-0.0776,-0.0776,-0.0775,-0.0775,0.0504,0.0577,0.0609,0.0745,0.0807,0.0918,0.0992,0.1108,0.1204,0.1311,0.134,0.1332,0.1009,-0.0095,-0.0871,-0.1077,-0.1351,-0.1419,-0.1562,-0.1284,-0.1261,-0.1239,-0.1259,-0.1469,-0.147,-0.1909,-0.1914,-0.1918]}],[{"header":{"parameterUnit":"m.s-1","parameterCategory":2,"la1":30.2991,"la2":30.254,"lo1":-89.0895,"lo2":-89.0444,"dy":0.0017,"dx":0.0017,"nx":28,"ny":28,"refTime":"2024-10-06T09:00:00:Z","depth":"2","parameterNumber":2,"parameterNumberName":"U-component_of_CURRENTS"},"data":[0,0,0,0,0,0,0,0,0,0,0,0,0,0,0,0,0,0,0,0,0,0,0,0,0,0,0,0,0,0,0,0,0,0,0,0,0,0,0,0,0,0,0,0,0,0,0,0,0,0,0,0,0,0,0,0,0,0,0.2521,0.2521,0,0.2535,0.2535,0.2535,0.2531,0.2531,0.2531,0.253,0.2518,0.2518,0.2517,0,0,0,0,0,0,0,0,0,0,0,0,0,0.2488,0.2488,0.2521,0.2521,0.2522,0.2535,0.2535,0.2535,0.2531,0.2531,0.2531,0.253,0.2518,0.2518,0.2517,0,0,0,0,0,0,0,0,0,0,0,0,0,0.25,0.2489,0.2521,0.2523,0.2523,0.2535,0.2535,0.2535,0.2531,0.2531,0.2531,0.253,0.2518,0.2518,0.2517,0.2519,0,0,0.2516,0.2516,0,0,0,0,0,0,0,0,0.25,0.2501,0.2522,0.2523,0.2523,0.2532,0.2519,0.2529,0.2531,0.2526,0.253,0.253,0.2522,0.2521,0.2522,0.2518,0.2518,0.2516,0.2516,0.2516,0.2516,0,0,0,0,0,0,0,0.2499,0.2501,0.2525,0.2522,0.2523,0.2522,0.2523,0.252,0.2523,0.2526,0.2527,0.2531,0.2521,0.2522,0.2521,0.2517,0.2516,0.2516,0.2516,0.2516,0.2556,0.2557,0,0,0,0,0,0,0.2501,0.25,0.2524,0.2525,0.2513,0.2523,0.2524,0.2528,0.2523,0.2523,0.2531,0.2531,0.2523,0.2522,0.2521,0.2554,0.2516,0.2516,0.2515,0.2555,0.2556,0.2558,0,0,0,0,0,0,0.25,0.2503,0.2524,0.2514,0.2517,0.2523,0.2528,0.2529,0.2537,0.2528,0.2526,0.2541,0.2523,0.2521,0.2533,0.2552,0.2515,0.2515,0.2553,0.2555,0.2557,0.2601,0,0,0,0,0,0,0.2499,0.2503,0.2508,0.2514,0.2518,0.254,0.2528,0.2529,0.2541,0.254,0.2535,0.2533,0.2522,0.2534,0.2533,0.2551,0.2515,0.2552,0.2554,0.2556,0.2598,0.2604,0.2609,0,0,0,0,0,0.2498,0.2506,0.2508,0.2511,0.2524,0.2541,0.2543,0.2545,0.2541,0.2551,0.255,0.2534,0.2548,0.2534,0.2533,0.2552,0.255,0.2553,0.2556,0.2595,0.2603,0.2609,0,0,0,0,0,0,0.2493,0.2507,0.2509,0.252,0.2534,0.2541,0.2551,0.2552,0.2559,0.2559,0.2546,0.2545,0.2566,0.2554,0.2539,0.2573,0.2548,0.2551,0.2578,0.2585,0.2591,0.2603,0.2515,0,0,0,0,0,0.2495,0.2505,0.2519,0.253,0.2539,0.2546,0.2554,0.2558,0.2565,0.2568,0.2564,0.2566,0.2576,0.2576,0.2581,0.2594,0.2603,0.2608,0.2613,0.2618,0.2628,0.2665,0.2675,0.2567,0.2567,0.2567,0,0,0.2495,0.2505,0.251,0.253,0.254,0.2557,0.255,0.2569,0.2584,0.2565,0.2583,0.2587,0.2586,0.2605,0.2613,0.2597,0.2655,0.2622,0.2626,0.2633,0.2669,0.2679,0.2689,0.2569,0.2569,0.2568,0,0,0.2502,0.2512,0.2524,0.254,0.2562,0.2571,0.2579,0.2594,0.2603,0.2621,0.2619,0.2637,0.2638,0.265,0.2653,0.2694,0.2688,0.2694,0.2727,0.2762,0.2771,0.2779,0.2809,0.2819,0.2692,0.2692,0.2692,0,0.2502,0.252,0.2531,0.255,0.2566,0.2579,0.26,0.2613,0.2629,0.2645,0.2633,0.2668,0.2663,0.2701,0.2715,0.2708,0.2725,0.2698,0.277,0.2778,0.2786,0.2814,0.2825,0.2695,0.2694,0.2694,0.2694,0,0.2518,0.2536,0.2548,0.2575,0.2595,0.2617,0.2639,0.2661,0.2672,0.2684,0.2726,0.2728,0.2751,0.2753,0.2743,0.2798,0.2793,0.2776,0.2751,0.2799,0.2826,0.2836,0.2698,0.2697,0.2697,0.2696,0,0,0.2504,0.255,0.2553,0.2569,0.2612,0.2624,0.2667,0.2706,0.2734,0.2754,0.2795,0.2816,0.2824,0.2831,0.2829,0.2854,0.2918,0.2839,0.284,0.2866,0.3,0.2985,0.2995,0.2915,0.2917,0.2919,0.2998,0,0.2514,0.2546,0.2574,0.2606,0.2624,0.2662,0.2698,0.2736,0.2768,0.2809,0.2835,0.2868,0.2852,0.2867,0.2896,0.2917,0.2948,0.2898,0.2951,0.2953,0.2932,0.3008,0.2757,0.2806,0.3008,0.301,0.3011,0,0.2518,0.2539,0.2572,0.2621,0.2634,0.2658,0.2722,0.2758,0.2828,0.2856,0.2907,0.2927,0.2983,0.2952,0.3027,0.2997,0.3008,0.3015,0.3018,0.2998,0.2958,0.2791,0.2818,0.3029,0.3027,0.3026,0.3025,0,0.2488,0.2537,0.256,0.2576,0.2635,0.2662,0.2699,0.2769,0.2815,0.2891,0.2936,0.2997,0.304,0.3069,0.3098,0.3068,0.3174,0.313,0.3129,0.3127,0.2922,0.2899,0.3185,0.3185,0.3184,0.3184,0.3184,0,0.2481,0.2497,0.2544,0.2553,0.2589,0.2639,0.2692,0.2744,0.2833,0.289,0.2956,0.302,0.3073,0.3137,0.3139,0.3185,0.3213,0.316,0.3158,0.2931,0.291,0.3101,0.309,0.3187,0.3187,0.3186,0.3185,0,0.2443,0.2475,0.25,0.2555,0.2574,0.2596,0.2685,0.2726,0.2819,0.2902,0.2934,0.3063,0.315,0.32,0.3261,0.3246,0.3275,0.3277,0.3013,0.2979,0.319,0.3181,0.3286,0.3286,0.3287,0.3287,0.3287,0,0.2425,0.2434,0.2485,0.25,0.2524,0.2569,0.2606,0.2704,0.2761,0.292,0.2963,0.3093,0.3166,0.3279,0.3271,0.3294,0.3317,0.3071,0.297,0.322,0.3207,0.3197,0.3187,0.2708,0.2703,0.2699,0.2696,0,0.239,0.241,0.2429,0.246,0.249,0.2525,0.259,0.2633,0.2753,0.2832,0.295,0.3024,0.3155,0.3086,0.3141,0.311,0.3047,0.3,0.333,0.2736,0.2685,0.2669,0.2676,0.2663,0.2667,0.2669,0.2671,0.2672,0.2361,0.2362,0.2389,0.2412,0.2443,0.2464,0.2467,0.2542,0.261,0.2684,0.2832,0.285,0.2901,0.2873,0.2802,0.2747,0.2952,0.2793,0.2799,0.281,0.2745,0.2698,0.2667,0.267,0.2672,0.2675,0.2677,0,0.2309,0.232,0.2341,0.235,0.2342,0.2393,0.2439,0.2407,0.2429,0.252,0.2582,0.2409,0.2398,0.2436,0.232,0.235,0.227,0.2237,0.209,0.2128,0.2161,0.2055,0.1797,0.1794,0.1791,0.1788,0,0,0.2283,0.2269,0.2275,0.2237,0.2247,0.2196,0.2198,0.2165,0.2187,0.2143,0.2128,0.2295,0.2391,0.2057,0.2032,0.189,0.198,0.1817,0.2533,0.2399,0.2427,0.2508,0.2394,0,0,0,0,0]},{"header":{"parameterUnit":"m.s-1","parameterCategory":2,"la1":30.2991,"la2":30.254,"lo1":-89.0895,"lo2":-89.0444,"dy":0.0017,"dx":0.0017,"nx":28,"ny":28,"refTime":"2024-10-06T09:00:00:Z","depth":"2","parameterNumber":3,"parameterNumberName":"V-component_of_CURRENTS"},"data":[0,0,0,0,0,0,0,0,0,0,0,0,0,0,0,0,0,0,0,0,0,0,0,0,0,0,0,0,0,0,0,0,0,0,0,0,0,0,0,0,0,0,0,0,0,0,0,0,0,0,0,0,0,0,0,0,0,0,-0.0012,-0.0013,0,-0.007,-0.0071,-0.0072,-0.0113,-0.0114,-0.0114,-0.0114,-0.0182,-0.0183,-0.0185,0,0,0,0,0,0,0,0,0,0,0,0,0,0.0023,0.0023,-0.0012,-0.0013,-0.0013,-0.007,-0.0071,-0.0072,-0.0113,-0.0114,-0.0114,-0.0114,-0.0181,-0.0183,-0.0185,0,0,0,0,0,0,0,0,0,0,0,0,0,-0.001,0.0023,-0.0012,-0.004,-0.0043,-0.007,-0.0071,-0.0072,-0.0113,-0.0114,-0.0114,-0.0114,-0.0181,-0.0183,-0.0185,-0.0193,0,0,-0.0192,-0.0193,0,0,0,0,0,0,0,0,-0.0008,-0.0012,-0.0035,-0.0038,-0.0042,-0.0084,-0.0083,-0.0112,-0.0113,-0.0088,-0.0114,-0.0114,-0.0149,-0.0154,-0.0165,-0.0196,-0.0199,-0.0193,-0.0194,-0.0195,-0.0196,0,0,0,0,0,0,0,-0.0006,-0.001,-0.0036,-0.0036,-0.004,-0.0063,-0.0068,-0.0089,-0.0117,-0.009,-0.0093,-0.0097,-0.0151,-0.0163,-0.0167,-0.02,-0.0193,-0.0195,-0.0196,-0.0197,-0.0244,-0.0244,0,0,0,0,0,0,0.0006,-0.0007,-0.0034,-0.0038,-0.0024,-0.0063,-0.0069,-0.0071,-0.0116,-0.0123,-0.0097,-0.0099,-0.0159,-0.0165,-0.017,-0.0174,-0.0195,-0.0197,-0.0199,-0.0244,-0.0244,-0.0244,0,0,0,0,0,0,0.0007,0.0004,-0.0032,-0.0023,-0.0029,-0.0063,-0.0065,-0.0072,-0.0084,-0.0121,-0.0129,-0.0102,-0.0159,-0.0167,-0.0185,-0.0178,-0.0198,-0.0201,-0.0244,-0.0244,-0.0244,-0.0188,0,0,0,0,0,0,0.0009,0.0005,0.0007,-0.0022,-0.0029,-0.004,-0.0065,-0.0073,-0.0085,-0.0089,-0.0128,-0.0135,-0.016,-0.0181,-0.0187,-0.0181,-0.0202,-0.0244,-0.0244,-0.0244,-0.019,-0.0186,-0.0182,0,0,0,0,0,0.001,0.0019,0.0008,0.0004,-0.0025,-0.004,-0.0045,-0.0072,-0.0085,-0.0085,-0.0112,-0.0133,-0.0183,-0.0182,-0.019,-0.0184,-0.0245,-0.0244,-0.0244,-0.0191,-0.0186,-0.0182,0,0,0,0,0,0,0.0036,0.0015,0.0002,0.0004,-0.0014,-0.0046,-0.0048,-0.0067,-0.009,-0.0093,-0.013,-0.0139,-0.0153,-0.0176,-0.0174,-0.0198,-0.0218,-0.0219,-0.0176,-0.0171,-0.0167,-0.0148,-0.0204,0,0,0,0,0,0.0043,0.0043,0.0018,0.002,0.0014,-0.0017,-0.0027,-0.0043,-0.0067,-0.0078,-0.0106,-0.0135,-0.0157,-0.0169,-0.0193,-0.0204,-0.0228,-0.0206,-0.0202,-0.0199,-0.0189,-0.0223,-0.0221,-0.0242,-0.0242,-0.0242,0,0,0.0052,0.0042,0.0041,0.0025,0.0008,0.001,-0.0024,-0.0032,-0.0032,-0.0081,-0.0089,-0.0122,-0.0157,-0.017,-0.0179,-0.0188,-0.0205,-0.0198,-0.0195,-0.0187,-0.0223,-0.022,-0.0219,-0.0242,-0.0242,-0.0242,0,0,0.0077,0.0063,0.0073,0.0065,0.0048,0.0031,0.0032,0.0003,-0.0011,-0.0025,-0.0059,-0.0083,-0.012,-0.0142,-0.0158,-0.0147,-0.0184,-0.0158,-0.0122,-0.0156,-0.0154,-0.0153,-0.0178,-0.018,-0.0155,-0.0155,-0.0155,0,0.0089,0.01,0.0074,0.0084,0.0085,0.0045,0.0061,0.0042,0.001,0.0004,-0.0019,-0.0072,-0.0105,-0.0117,-0.0116,-0.0136,-0.0161,-0.0136,-0.015,-0.0149,-0.0149,-0.0175,-0.0178,-0.0153,-0.0153,-0.0153,-0.0153,0,0.0123,0.0131,0.0139,0.0139,0.0136,0.0142,0.0118,0.011,0.0085,0.0062,0.0039,-0.0011,-0.004,-0.0059,-0.0085,-0.0097,-0.0117,-0.0141,-0.0158,-0.0143,-0.0172,-0.0176,-0.0149,-0.015,-0.015,-0.0151,0,0,0.0157,0.0162,0.0166,0.018,0.0168,0.0172,0.0175,0.0167,0.0174,0.0127,0.0128,0.0075,0.0041,0.002,-0.0021,-0.0053,-0.0077,-0.0092,-0.0095,-0.011,-0.0147,-0.016,-0.0166,-0.0107,-0.0107,-0.0107,-0.0167,0,0.0193,0.023,0.022,0.0255,0.0274,0.0248,0.0258,0.0244,0.0219,0.0208,0.0149,0.013,0.0073,0.0059,0.0018,-0.005,-0.0084,-0.0058,-0.0165,-0.0168,-0.0176,-0.017,-0.0138,-0.0188,-0.017,-0.0171,-0.0171,0,0.0235,0.0256,0.0297,0.0323,0.033,0.034,0.0353,0.0356,0.0327,0.0305,0.0266,0.0219,0.0171,0.0116,0.0009,0.0027,-0.0052,-0.0113,-0.0117,-0.0149,-0.0188,-0.0202,-0.0196,-0.0178,-0.0177,-0.0177,-0.0176,0,0.0281,0.0314,0.0351,0.0359,0.0376,0.0389,0.0395,0.0383,0.0403,0.0363,0.0368,0.0291,0.0264,0.0154,0.0031,0.0017,-0.009,-0.0127,-0.0213,-0.0215,-0.0217,-0.0219,-0.0205,-0.0205,-0.0205,-0.0205,-0.0204,0,0.033,0.0362,0.0374,0.0395,0.0448,0.0437,0.048,0.0472,0.0477,0.0513,0.0421,0.0433,0.0272,0.0193,0.0061,-0.0078,-0.0069,-0.0201,-0.023,-0.0197,-0.0196,-0.0212,-0.0212,-0.0207,-0.0206,-0.0206,-0.0206,0,0.0376,0.0382,0.0429,0.0456,0.0469,0.0504,0.0547,0.0583,0.0568,0.0612,0.0607,0.0543,0.0438,0.0276,0.0105,-0.0023,-0.0166,-0.022,-0.0165,-0.0188,-0.0277,-0.0274,-0.0323,-0.0324,-0.0325,-0.0326,-0.0326,0,0.0402,0.043,0.0478,0.0513,0.0525,0.0572,0.0615,0.0626,0.0675,0.0689,0.0729,0.0645,0.061,0.0352,0.0113,-0.0116,-0.0157,-0.025,-0.0277,-0.0265,-0.0289,-0.0284,-0.028,-0.0259,-0.0259,-0.0259,-0.0259,0,0.0456,0.0468,0.0508,0.058,0.063,0.0696,0.0757,0.0815,0.0841,0.0879,0.0924,0.0897,0.0661,0.0445,0.0122,-0.0038,-0.0214,-0.0258,-0.0259,-0.0232,-0.021,-0.0232,-0.0229,-0.0259,-0.0259,-0.0259,-0.0259,-0.0259,0.0497,0.0535,0.0585,0.0656,0.0721,0.0812,0.0873,0.0952,0.1043,0.1108,0.1079,0.1037,0.0785,0.0385,0.0106,-0.0202,-0.0197,-0.031,-0.0309,-0.0307,-0.0287,-0.0267,-0.0323,-0.0324,-0.0324,-0.0324,-0.0324,0,0.0551,0.0591,0.066,0.0742,0.0825,0.0846,0.0969,0.1037,0.1152,0.12,0.1229,0.1004,0.0755,0.0449,0.0005,-0.0257,-0.0278,-0.0349,-0.0313,-0.0311,-0.031,-0.0289,-0.0327,-0.0328,-0.0328,-0.0329,0,0,0.0581,0.0652,0.0685,0.0817,0.0876,0.0989,0.1061,0.1164,0.1225,0.1278,0.1254,0.1205,0.0843,0.0528,0.0176,-0.0081,-0.0144,-0.0137,-0.0107,-0.0021,-0.0017,-0.0258,-0.022,0,0,0,0,0]}],[{"header":{"parameterUnit":"m.s-1","parameterCategory":2,"la1":30.2991,"la2":30.254,"lo1":-89.0895,"lo2":-89.0444,"dy":0.0017,"dx":0.0017,"nx":28,"ny":28,"refTime":"2024-10-06T09:00:00:Z","depth":"4","parameterNumber":2,"parameterNumberName":"U-component_of_CURRENTS"},"data":[0,0,0,0,0,0,0,0,0,0,0,0,0,0,0,0,0,0,0,0,0,0,0,0,0,0,0,0,0,0,0,0,0,0,0,0,0,0,0,0,0,0,0,0,0,0,0,0,0,0,0,0,0,0,0,0,0,0,0.163,0.163,0,0.1682,0.1683,0.1683,0.1734,0.1734,0.1735,0.1736,0.18,0.1801,0.1802,0,0,0,0,0,0,0,0,0,0,0,0,0,0.1561,0.1562,0.163,0.163,0.1631,0.1682,0.1683,0.1684,0.1733,0.1734,0.1735,0.1736,0.18,0.1801,0.1802,0,0,0,0,0,0,0,0,0,0,0,0,0,0.1599,0.1562,0.1629,0.1663,0.1667,0.1682,0.1683,0.1684,0.1733,0.1734,0.1735,0.1737,0.1799,0.1801,0.1802,0.1789,0,0,0.1807,0.1808,0,0,0,0,0,0,0,0,0.1597,0.1601,0.1658,0.1661,0.1665,0.1704,0.1683,0.172,0.1733,0.1707,0.1736,0.1737,0.1769,0.1773,0.1778,0.1792,0.1795,0.1807,0.1808,0.1809,0.1809,0,0,0,0,0,0,0,0.1594,0.1599,0.1649,0.1658,0.1663,0.1672,0.1679,0.169,0.173,0.1709,0.1713,0.1721,0.1771,0.1777,0.178,0.1796,0.1807,0.1808,0.1809,0.181,0.1912,0.1914,0,0,0,0,0,0,0.159,0.1597,0.1647,0.1651,0.1635,0.1673,0.168,0.1689,0.173,0.1737,0.172,0.1723,0.1774,0.1779,0.1783,0.1867,0.1809,0.181,0.1811,0.191,0.1913,0.1915,0,0,0,0,0,0,0.1588,0.1594,0.1645,0.1626,0.1633,0.1673,0.1683,0.169,0.1733,0.1738,0.1746,0.176,0.1775,0.1781,0.1829,0.1866,0.1811,0.1812,0.1908,0.1911,0.1914,0.1973,0,0,0,0,0,0,0.1586,0.1593,0.1615,0.1626,0.1634,0.1679,0.1682,0.169,0.1734,0.174,0.1774,0.1779,0.1776,0.1827,0.183,0.1867,0.1813,0.1906,0.191,0.1913,0.1969,0.1977,0.1985,0,0,0,0,0,0.1583,0.1602,0.1615,0.1622,0.1658,0.1681,0.1687,0.1716,0.1735,0.1759,0.1787,0.178,0.1851,0.1829,0.1833,0.1872,0.1904,0.1909,0.1913,0.1965,0.1976,0.1985,0,0,0,0,0,0,0.1586,0.161,0.1624,0.1652,0.1677,0.169,0.172,0.1737,0.1777,0.1795,0.1799,0.1807,0.1864,0.186,0.1836,0.1912,0.1878,0.1883,0.1917,0.1927,0.1935,0.1938,0.1815,0,0,0,0,0,0.1595,0.162,0.1639,0.1667,0.1683,0.1709,0.1729,0.175,0.1777,0.1798,0.1822,0.185,0.1876,0.1897,0.1916,0.1955,0.1956,0.1984,0.1992,0.1999,0.2006,0.2039,0.2051,0.1928,0.1928,0.1928,0,0,0.1604,0.1622,0.1638,0.1671,0.1695,0.1721,0.1725,0.1768,0.18,0.1797,0.1862,0.1881,0.1894,0.194,0.1966,0.1947,0.2037,0.2004,0.2009,0.2013,0.2045,0.2056,0.2067,0.1931,0.193,0.193,0,0,0.1622,0.1653,0.1677,0.1701,0.1744,0.1758,0.1779,0.1814,0.1847,0.1898,0.191,0.1955,0.1993,0.201,0.2021,0.2085,0.2079,0.2099,0.2142,0.2175,0.2185,0.2194,0.2217,0.2228,0.2102,0.2102,0.2102,0,0.1636,0.1665,0.1689,0.1717,0.1745,0.1778,0.181,0.1841,0.1892,0.1923,0.1931,0.201,0.2023,0.2076,0.2103,0.2103,0.2119,0.2102,0.2185,0.2194,0.2202,0.2223,0.2234,0.2105,0.2105,0.2105,0.2104,0,0.1658,0.1697,0.1717,0.1762,0.1794,0.1831,0.187,0.1918,0.1961,0.1988,0.2065,0.2089,0.2135,0.215,0.2147,0.2217,0.2209,0.219,0.2157,0.2218,0.2236,0.2247,0.211,0.2109,0.2108,0.2107,0,0,0.1645,0.1718,0.1729,0.1758,0.1825,0.1846,0.1914,0.1971,0.2019,0.2078,0.2139,0.2194,0.222,0.2234,0.2245,0.2276,0.2348,0.2267,0.2267,0.2284,0.2426,0.2284,0.2281,0.2349,0.2351,0.2353,0.2418,0,0.166,0.1713,0.1752,0.1813,0.1841,0.1901,0.1954,0.2015,0.2072,0.2139,0.2187,0.2248,0.2247,0.2283,0.2319,0.2343,0.2378,0.2332,0.237,0.2371,0.2232,0.2289,0.2359,0.2425,0.2427,0.2429,0.243,0,0.1661,0.1699,0.176,0.1837,0.1858,0.1905,0.1998,0.2052,0.2148,0.2196,0.227,0.2307,0.2383,0.2365,0.2446,0.2423,0.2437,0.2445,0.2447,0.2299,0.2247,0.2352,0.2448,0.2447,0.2445,0.2444,0.2443,0,0.1618,0.1701,0.1752,0.1779,0.187,0.1922,0.1982,0.2077,0.2134,0.2243,0.2297,0.2379,0.2439,0.2475,0.2511,0.2491,0.2583,0.2548,0.2434,0.2424,0.2505,0.2495,0.2602,0.2602,0.2602,0.2602,0.2602,0,0.1596,0.164,0.1742,0.1765,0.1834,0.191,0.1994,0.2065,0.2174,0.2235,0.233,0.2384,0.2474,0.2534,0.2543,0.2523,0.2614,0.2451,0.2433,0.253,0.2522,0.2513,0.2501,0.2604,0.2604,0.2603,0.2603,0,0.1535,0.1605,0.1666,0.1776,0.1816,0.1867,0.1999,0.205,0.2167,0.2254,0.2297,0.2421,0.2489,0.2555,0.2618,0.2552,0.2548,0.2518,0.2633,0.2619,0.2358,0.235,0.2383,0.2379,0.2375,0.2372,0.237,0,0.1504,0.1532,0.1659,0.17,0.1758,0.1848,0.1906,0.2035,0.2086,0.225,0.2276,0.24,0.2462,0.2436,0.2516,0.2525,0.2497,0.2477,0.2399,0.2357,0.2338,0.2335,0.2332,0.2364,0.2363,0.2362,0.2361,0,0.1442,0.1507,0.1557,0.1641,0.1713,0.1775,0.1869,0.1892,0.203,0.216,0.2194,0.2228,0.2303,0.234,0.2373,0.2373,0.2474,0.2437,0.2444,0.237,0.2334,0.2317,0.2319,0.2348,0.2349,0.2351,0.2351,0,0.1403,0.1422,0.1501,0.1562,0.1644,0.1668,0.173,0.1782,0.1847,0.2018,0.2027,0.2152,0.2275,0.2263,0.2292,0.2285,0.2241,0.2155,0.2175,0.2191,0.2097,0.2021,0.1931,0,0,0,0,0,0.135,0.1359,0.141,0.1461,0.1538,0.1583,0.1687,0.1748,0.1881,0.1853,0.193,0.1983,0.2021,0.2093,0.2045,0.2218,0.2258,0.2154,0.2171,0.2275,0.229,0.2198,0,0,0,0,0,0,0.1311,0.1357,0.1371,0.1364,0.1379,0.1441,0.1498,0.1589,0.1578,0.1722,0.1753,0.1867,0.1937,0.2026,0.2008,0.203,0.2001,0.224,0.2235,0.2267,0.228,0.2293,0.2203,0,0,0,0,0]},{"header":{"parameterUnit":"m.s-1","parameterCategory":2,"la1":30.2991,"la2":30.254,"lo1":-89.0895,"lo2":-89.0444,"dy":0.0017,"dx":0.0017,"nx":28,"ny":28,"refTime":"2024-10-06T09:00:00:Z","depth":"4","parameterNumber":3,"parameterNumberName":"V-component_of_CURRENTS"},"data":[0,0,0,0,0,0,0,0,0,0,0,0,0,0,0,0,0,0,0,0,0,0,0,0,0,0,0,0,0,0,0,0,0,0,0,0,0,0,0,0,0,0,0,0,0,0,0,0,0,0,0,0,0,0,0,0,0,0,0.0142,0.0141,0,0.0102,0.0101,0.0101,0.0071,0.0071,0.0071,0.0071,0.002,0.0019,0.0018,0,0,0,0,0,0,0,0,0,0,0,0,0,0.0165,0.0164,0.0142,0.0141,0.0141,0.0102,0.0101,0.01,0.0071,0.0071,0.0071,0.0071,0.002,0.0019,0.0018,0,0,0,0,0,0,0,0,0,0,0,0,0,0.0142,0.0164,0.0142,0.0122,0.012,0.0102,0.0101,0.01,0.0072,0.0071,0.0071,0.0071,0.0021,0.0019,0.0017,0.0012,0,0,0.0012,0.0011,0,0,0,0,0,0,0,0,0.0143,0.0141,0.0125,0.0123,0.0121,0.0092,0.009,0.007,0.0072,0.0089,0.0071,0.0071,0.0044,0.004,0.0032,0.0009,0.0007,0.0012,0.0011,0.001,0.0009,0,0,0,0,0,0,0,0.0145,0.0142,0.0125,0.0125,0.0122,0.0106,0.0102,0.0086,0.0068,0.0088,0.0086,0.0082,0.0042,0.0034,0.0031,0.0006,0.0012,0.001,0.0009,0.0008,-0.003,-0.003,0,0,0,0,0,0,0.0153,0.0144,0.0126,0.0124,0.0133,0.0106,0.0102,0.0101,0.0068,0.0063,0.0083,0.0081,0.0037,0.0033,0.0029,0.0026,0.001,0.0008,0.0007,-0.003,-0.003,-0.003,0,0,0,0,0,0,0.0154,0.0152,0.0128,0.0133,0.0129,0.0106,0.0105,0.01,0.0093,0.0065,0.0059,0.008,0.0037,0.0031,0.0018,0.0023,0.0007,0.0006,-0.003,-0.003,-0.003,0.0016,0,0,0,0,0,0,0.0155,0.0153,0.0156,0.0134,0.0129,0.0122,0.0105,0.01,0.0092,0.0089,0.0061,0.0056,0.0036,0.0021,0.0016,0.0021,0.0004,-0.003,-0.003,-0.003,0.0015,0.0018,0.0021,0,0,0,0,0,0.0156,0.0163,0.0157,0.0155,0.0135,0.0122,0.0119,0.01,0.0092,0.0092,0.0073,0.0057,0.0018,0.002,0.0014,0.0018,-0.003,-0.003,-0.003,0.0013,0.0017,0.002,0,0,0,0,0,0,0.0174,0.016,0.0153,0.0155,0.0142,0.0118,0.0118,0.0104,0.0089,0.0087,0.0059,0.0053,0.0042,0.0024,0.0026,0.0006,-0.0009,-0.001,0.0025,0.0029,0.0031,0.0047,0.0003,0,0,0,0,0,0.0181,0.0183,0.0165,0.0167,0.0163,0.0141,0.0135,0.0122,0.0105,0.0098,0.0077,0.0055,0.0038,0.0029,0.001,0.0002,-0.002,-0.0001,0.0002,0.0005,0.0014,-0.0017,-0.0016,-0.0029,-0.0029,-0.0029,0,0,0.0188,0.0182,0.0182,0.0172,0.016,0.0161,0.0137,0.0131,0.0132,0.0095,0.009,0.0066,0.0038,0.0028,0.0021,0.0014,-0.0004,0.0005,0.0008,0.0015,-0.0017,-0.0016,-0.0015,-0.0029,-0.0029,-0.0029,0,0,0.0207,0.02,0.0208,0.0202,0.019,0.0178,0.0179,0.0157,0.0148,0.0139,0.0113,0.0094,0.0067,0.0049,0.0037,0.0045,0.0013,0.0035,0.0064,0.0034,0.0035,0.0036,0.0008,0.0006,0.0037,0.0037,0.0038,0,0.0217,0.0226,0.0208,0.0216,0.0217,0.0189,0.0201,0.0187,0.0164,0.0161,0.0144,0.0103,0.0078,0.0069,0.007,0.0053,0.003,0.0055,0.0039,0.0039,0.0039,0.0011,0.0008,0.004,0.0039,0.0039,0.0039,0,0.024,0.0249,0.0255,0.0257,0.0255,0.026,0.0243,0.0238,0.0222,0.0205,0.0189,0.0151,0.0129,0.0114,0.0094,0.0083,0.0065,0.0047,0.0033,0.0043,0.0012,0.0008,0.0043,0.0042,0.0041,0.0041,0,0,0.0261,0.027,0.0274,0.0287,0.028,0.0283,0.0287,0.0283,0.0291,0.0255,0.0258,0.0218,0.0193,0.0177,0.0145,0.0117,0.0092,0.0085,0.0083,0.0064,0.0025,0.0015,0.0009,0.0069,0.0069,0.0068,0.0004,0,0.0287,0.0316,0.0312,0.0342,0.0356,0.0341,0.0351,0.0343,0.0325,0.0319,0.0274,0.0261,0.0218,0.0209,0.0174,0.0116,0.0084,0.0111,0.0013,0.001,0.0005,0.0005,0.0067,0.0001,-0.0,-0.0001,-0.0001,0,0.0314,0.0332,0.0366,0.0393,0.0399,0.0411,0.0426,0.0432,0.0413,0.0396,0.0368,0.0332,0.0293,0.0251,0.0156,0.0175,0.0107,0.0055,0.0051,0.0025,-0.0007,-0.0013,-0.0009,-0.0008,-0.0008,-0.0007,-0.0007,0,0.0342,0.0373,0.0405,0.0413,0.0434,0.0449,0.0461,0.0456,0.0474,0.0447,0.045,0.0388,0.0365,0.0273,0.0167,0.016,0.0057,0.0032,-0.0042,-0.0044,-0.0036,-0.0036,-0.0038,-0.0038,-0.0037,-0.0037,-0.0037,0,0.0371,0.0399,0.0423,0.044,0.0488,0.0488,0.0529,0.0527,0.0536,0.0561,0.0495,0.0494,0.0368,0.0296,0.0187,0.0065,0.0069,-0.0034,-0.006,-0.0016,-0.0013,-0.0039,-0.0038,-0.004,-0.0039,-0.0039,-0.0038,0,0.0394,0.0408,0.0451,0.0485,0.0502,0.0535,0.0585,0.0616,0.061,0.064,0.0638,0.0577,0.0476,0.0346,0.0196,0.0101,-0.0021,-0.0068,-0.0003,-0.0025,-0.0108,-0.0104,-0.0156,-0.0157,-0.0157,-0.0158,-0.0159,0,0.0407,0.0431,0.0487,0.052,0.0538,0.0587,0.0629,0.065,0.0684,0.069,0.071,0.0632,0.0568,0.0359,0.0207,-0.0001,-0.0037,-0.0103,-0.0114,-0.0099,-0.012,-0.0115,-0.011,-0.016,-0.016,-0.016,-0.016,0,0.0434,0.0455,0.049,0.0559,0.0609,0.067,0.0726,0.0758,0.0784,0.0786,0.0768,0.0659,0.0543,0.0367,0.0206,0.0054,-0.006,-0.0111,-0.0111,-0.0123,-0.0105,-0.0123,-0.0118,-0.0163,-0.0162,-0.0162,-0.0162,0,0.0456,0.0486,0.0535,0.0595,0.0665,0.073,0.0756,0.0795,0.0828,0.0832,0.0824,0.0693,0.0619,0.0396,0.0248,0.0097,0.005,-0.0008,-0.0014,-0.0013,0.0041,0.0085,0.0067,0,0,0,0,0,0.0475,0.051,0.0568,0.0633,0.0704,0.0745,0.0816,0.0836,0.0862,0.0859,0.0844,0.0733,0.0514,0.0423,0.027,0.0218,0.0015,0.0032,-0.0056,-0.0177,-0.0174,-0.0137,0,0,0,0,0,0,0.0487,0.0542,0.0568,0.0656,0.0705,0.0786,0.0833,0.0852,0.0847,0.0849,0.074,0.0685,0.0476,0.0603,0.0265,0.022,0.014,-0.0068,-0.0072,-0.0179,-0.0176,-0.0174,-0.0134,0,0,0,0,0]}]]